Location: Brudzew
(52.0976°N, 18.6049°E)
Time: 05:32:51
(UTC+02:00)

ISS - Pass Details

Date: 28 September 2018
Orbit: 403 x 408 km, 51.6° (Epoch: 21 October)

Event Time Altitude Azimuth Distance (km) Brightness Sun altitude
Rises 21:37:14 0° 275° (W) 2,341 0.9 -27.8°
Reaches altitude 10° 21:39:19 10° 274° (W) 1,478 -0.3 -28.1°
Enters shadow 21:39:56 15° 273° (W) 1,228 -0.8 -28.2°
